STARLINK-33903, 63828

Orbit data source: Space-Track

STARLINK-33903, 63828 is a payload satellite owned by SpaceX/Seattle (US) in LEO that was launched on Sun, 04 May 2025 UTC via an FALCON 9 launch vehicle from the Air Force Eastern Test Range (AFETR). Payload-class satellites include a variety of spacecraft equipped with specific instruments for various scientific and technological missions. These include communications satellites like Starlink; space stations such as the ISS; scientific satellites like the Hubble; Earth observation satellites from companies like Planet Labs, Umbra, and HawkEye 360; GPS; miniature CubeSats for education and research; and military/defense satellites.

Loading next visibility...
Identifier
63828, 2025-092AA
Orbit
LEO
Last TLE update
12 hours ago
Origin
Manufacturer
SpaceX/Seattle
Mission
Operational Commercial Communications
Bus & Motor
STARLINK V2MO, Unknown motor
Mass
575 kg wet, ~530 kg dry
Launch date (UTC)
2025-05-04 (2 months ago)
Launch vehicle
FALCON 9
Launch site
Air Force Eastern Test Range (AFETR)
Object type
Payload
Rocket body
Debris
Shape & HBR
Box + 1 Pan, 29 m
Radar Cross Section
41.120 m², Large (>1 m²)

Expand to show TLE details & history

TLE from 12 hours ago
0 STARLINK-33903
1 63828U 25092AA  25189.13767071  .00010856  00000-0  40338-3 0  9993
2 63828  43.0007 113.6300 0001541 279.4799  80.5878 15.27586120 11268
Epoch: 2025-07-08T03:18Z
TLE epoch observation values (Epoch: 2025-07-08T03:18:14.749Z)
Latitude
-0.00004°
Longitude
137.73153°
Altitude
482.634 km
Speed
7.626 km/s
True Right ascension
07h 34m 31s
True Declination
0° 00' 00"
Sunlit
Object was in daylight at epoch
Visualization orbit readout
Latitude
-12.11198°
Longitude
-31.82772°
Altitude
485.034 km
Speed
7.624 km/s
Apparent Right ascension
18h 13m 26s
Apparent Declination
-30° 41' 24"
Sunlit
Object is in full shadow
Visualization observer readout
Local Sidereal Time
03:15:51
Azimuth
270.266° WNW
Elevation
-53.012°
Doppler factor
1
Orbital elements
Apogee altitude
486.033 km
Perigee altitude
483.918 km
Semi-major axis
6,863.113 km
Eccentricity
0.00015
Inclination
43.0007°
RAAN
113.63°
Arg. of periapsis
279.4799°
True anomaly
Unknown
Mean anomaly
80.5878°
Eccentric anomaly
Unknown
Mean motion
3.81735 °/min
Orbital period
94.31 mins
BSTAR
0.00040338
Loading maneuver chart data...
Loading SW <> Apogee altitude chart data...
Loading historical data...
Loading historical data...
Loading historical data...
Loading historical data...
Loading historical data...
Loading historical data...
Loading historical data...

STARLINK-33903 Visibility forecast

Observer location: undefined°, undefined°

Span
Click to sort rows by Start time (UTC) header in descending order
Start Az.
Max El. time (UTC)
Max El. Az.
Max El.
End time (UTC)
End Az.
6 mins2025-07-08 22:21:02.157Z217.834° SW2025-07-08 22:24:02.157Z135.423° SSE33.16°2025-07-08 22:27:02.157Z81.395° E
6 mins2025-07-09 00:00:02.157Z270.153° WNW2025-07-09 00:03:02.157Z28.752° NE39.936°2025-07-09 00:06:02.157Z70.339° E
5 mins2025-07-09 01:40:02.157Z299.646° NW2025-07-09 01:42:02.157Z24.457° NE38.883°2025-07-09 01:45:02.157Z84.169° E
5 mins2025-07-09 03:19:02.157Z275.635° WNW2025-07-09 03:21:02.157Z182.602° SSW41.01°2025-07-09 03:24:02.157Z124.386° SE
|